Location: Roland
(31.1349°N, 85.4372°W)
Time: 21:28:17
(UTC+00:00)

Courier 1B - Visible Passes

Search period start: 17 April 2021 00:00
Search period end: 27 April 2021 00:00
Orbit: 962 x 1209 km, 28.3° (Epoch: 17 April)

Date Brightness Start Highest point End Pass type
(mag) Time Alt. Az. Time Alt. Az. Time Alt. Az.
17 Apr 9.5 02:17:47 10° WSW 02:21:41 16° SSW 02:23:08 15° SSW visible
18 Apr 9.3 01:23:11 10° WSW 01:28:00 21° SSW 01:32:50 11° SSE visible
19 Apr 9.1 00:28:58 10° W 00:34:20 26° SSW 00:39:56 10° SSE visible
20 Apr 9.8 01:32:29 10° SW 01:34:10 11° SSW 01:35:52 10° SSW visible
21 Apr 9.7 00:36:51 10° WSW 00:40:32 15° SSW 00:44:17 10° S visible
